Location: Asheville, NC
(35.6000°N, 82.5500°W)
Time: 20:21:28
(UTC-04:00)

Vanguard 1 Rocket - Pass Details

Date: 11 March 2018
Orbit: 653 x 4224 km, 34.3° (Epoch: 20 June)

Event Time Altitude Azimuth Distance (km) Brightness Sun altitude
Rises 23:33:53 0° 279° (W) 5,314 11.9 -46.5°
Reaches altitude 10° 23:36:40 10° 278° (W) 4,664 11.4 -47.0°
Enters shadow 23:49:39 74° 232° (SW) 3,250 9.8 -48.9°
Maximum altitude 23:51:17 77° 196° (SSW) 3,331 - -49.1°
Drops below altitude 10° 00:16:36 10° 115° (ESE) 7,417 - -52.4°
Sets 00:22:32 0° 115° (ESE) 8,443 - -53.1°
